Home > Weather > Las Palmas > Past weeks

Flag for Spain Past Weather in Las Palmas, Canary Islands, Spain — Yesterday and Last 2 Weeks

Now
77 °F

Scattered clouds.


Feels Like: 79 °F
Forecast: 71 / 76 °F
Wind: 30 mph from North

Location: Las Palmas De Gran Canaria / Gando

Current Time: Jul 29, 2016 at 3:07:21 PM

Latest Report: Jul 29, 2016 at 2:30 PM


Visibility: N/A

Pressure: 30.04 "Hg

Humidity: 61%

Dew Point: 63 °F

Location of Las PalmasLocation

Past Weather in Las Palmas — Graph

°F

Las Palmas Temperature Yesterday

Maximum temperature yesterday: 81 °F (at 3:00 PM)
Minimum temperature yesterday: 70 °F (at 2:30 AM)
Average temperature yesterday: 74 °F

High & Low Weather Summary for the Past Weeks

 TemperatureHumidityPressure
High90 °F (Jul 16, 3:00 PM)94% (Jul 21, 4:30 AM)30.09 "Hg (Jul 21, 4:30 AM)
Low70 °F (Jul 15, 2:00 AM)16% (Jul 16, 2:30 PM)29.86 "Hg (Jul 24, 9:30 PM)
Average77 °F61%29.97 "Hg
* Reported Jul 14 1:00 PM — Jul 29 1:30 PM, Las Palmas, Weather by CustomWeather, © 2016

Note: Actual official high and low records may vary slightly from our data, if they occured in-between our weather recording intervals... More about our weather records

Advertising

Las Palmas Weather History for the Previous 24 Hours

Scroll right to see more
 ConditionsComfort  
Time TempWeatherWind HumidityBarometerVisibility
1:30 PM
Fri, Jul 29
77 °FScattered clouds.29 mph61%30.04 "HgN/A
1:00 PM77 °FPartly sunny.30 mph61%30.04 "HgN/A
12:30 PM75 °FPartly sunny.31 mph65%30.04 "HgN/A
12:00 PM75 °FPartly sunny.30 mph65%30.04 "HgN/A
11:30 AM75 °FPartly sunny.30 mph65%30.04 "HgN/A
11:00 AM75 °FPartly sunny.30 mph65%30.04 "HgN/A
10:30 AM75 °FScattered clouds.31 mph65%30.04 "HgN/A
10:00 AM73 °FScattered clouds.30 mph65%30.04 "HgN/A
9:30 AM73 °FScattered clouds.30 mph69%30.01 "HgN/A
9:00 AM73 °FScattered clouds.26 mph69%30.01 "HgN/A
8:30 AM72 °FScattered clouds.25 mph69%30.01 "HgN/A
8:00 AM72 °FPassing clouds.26 mph73%30.01 "HgN/A
7:30 AM72 °FPassing clouds.25 mph69%29.98 "HgN/A
7:00 AM72 °FPassing clouds.28 mph69%29.98 "HgN/A
6:30 AM73 °FPassing clouds.24 mph65%29.98 "HgN/A
6:00 AM72 °FPassing clouds.31 mph69%29.98 "HgN/A
5:30 AM72 °FPassing clouds.26 mph69%30.01 "HgN/A
5:00 AM72 °FPassing clouds.30 mph69%29.98 "HgN/A
4:30 AM73 °FPassing clouds.29 mph69%29.98 "HgN/A
4:00 AM73 °FPassing clouds.24 mph69%29.98 "HgN/A
3:30 AM73 °FPassing clouds.25 mph69%30.01 "HgN/A
3:00 AM73 °FPassing clouds.28 mph69%30.01 "HgN/A
2:30 AM73 °FPassing clouds.28 mph69%30.01 "HgN/A
2:00 AM72 °FPassing clouds.30 mph73%30.01 "HgN/A
1:30 AM72 °FPassing clouds.28 mph73%30.01 "HgN/A
1:00 AM72 °FPassing clouds.32 mph73%30.04 "HgN/A
12:30 AM72 °FPassing clouds.29 mph73%30.04 "HgN/A
12:00 AM72 °FPassing clouds.28 mph73%30.04 "HgN/A
11:30 PM
Thu, Jul 28
73 °FPassing clouds.29 mph69%30.04 "HgN/A
11:00 PM73 °FPassing clouds.26 mph69%30.04 "HgN/A
10:30 PM73 °FPassing clouds.31 mph69%30.01 "HgN/A
10:00 PM73 °FPassing clouds.28 mph69%30.01 "HgN/A
9:30 PM73 °FScattered clouds.31 mph69%30.01 "HgN/A
9:00 PM73 °FScattered clouds.31 mph69%29.98 "HgN/A
8:30 PM73 °FScattered clouds.33 mph69%29.98 "HgN/A
8:00 PM75 °FScattered clouds.33 mph65%29.98 "HgN/A
7:30 PM75 °FScattered clouds.31 mph65%29.98 "HgN/A
7:00 PM75 °FPassing clouds.36 mph65%29.98 "HgN/A
6:30 PM77 °FPassing clouds.33 mph61%29.98 "HgN/A
6:00 PM77 °FPassing clouds.36 mph61%29.98 "HgN/A
5:30 PM77 °FPassing clouds.36 mph57%29.98 "HgN/A
5:00 PM79 °FPassing clouds.35 mph58%29.98 "HgN/A
4:30 PM79 °FPassing clouds.35 mph58%29.98 "HgN/A
4:00 PM81 °FPassing clouds.35 mph54%30.01 "HgN/A
3:30 PM79 °FPassing clouds.35 mph58%30.01 "HgN/A
3:00 PM81 °FPassing clouds.32 mph54%30.01 "HgN/A
Weather by CustomWeather, © 2016

See weather overviewHow to use our weather pages